This demonstration page uses our WeatherBlox Daily Observations layout. Learn more.

40.92945, -100.16068

Hourly Observations for January 5, 2019

Temp ( °F °C ) Dew Point ( °F °C ) Humidity (%) Winds ( mph kmh ) Pressure ( in mb ) Visibility ( mi km ) Precip ( " mm )
12:15 am 00:15 Clear 29 -1.7 27 -2.9 92 92 WSW 3 6 30.06 1018 10 16.09344 0 0
12:35 am 00:35 Clear 29 -1.8 26 -3.2 90 90 W 5 7 30.06 1018 10 16.09344 0 0
12:55 am 00:55 Clear 28 -2.4 26 -3.6 92 92 Calm 30.06 1018 10 16.09344 0 0
1:15 am 01:15 Clear 27 -2.7 25 -4 91 91 WNW 5 7 30.06 1018 10 16.09344 0 0
1:35 am 01:35 Clear 28 -2.5 25 -4 90 90 Calm 30.06 1018 10 16.09344 0 0
1:55 am 01:55 Clear 27 -2.9 24 -4.5 89 89 NW 7 11 30.09 1019 10 16.09344 0 0
2:15 am 02:15 Clear 26 -3.1 24 -4.5 90 90 WNW 5 7 30.12 1020 10 16.09344 0 0
2:35 am 02:35 Clear 27 -2.6 25 -3.9 91 91 W 3 6 30.06 1018 10 16.09344 0 0
2:55 am 02:55 Clear 27 -2.7 24 -4.2 90 90 WNW 7 11 30.12 1020 10 16.09344 0 0
3:15 am 03:15 Clear 26 -3.2 23 -4.8 89 89 W 8 13 30.12 1020 10 16.09344 0 0
3:35 am 03:35 Clear 27 -3 24 -4.5 90 90 W 6 9 30.09 1019 10 16.09344 0 0
3:55 am 03:55 Clear 27 -3 24 -4.5 90 90 W 7 11 30.09 1019 10 16.09344 0 0
4:15 am 04:15 Clear 26 -3.5 23 -5 89 89 W 6 9 30.09 1019 10 16.09344 0 0
4:35 am 04:35 Clear 26 -3.2 24 -4.7 90 90 WNW 7 11 30.09 1019 10 16.09344 0 0
4:55 am 04:55 Clear 26 -3.1 23 -4.8 88 88 W 6 9 30.09 1019 10 16.09344 0 0
5:15 am 05:15 Clear 26 -3.1 24 -4.6 90 90 W 5 7 30.09 1019 10 16.09344 0 0
5:35 am 05:35 Clear 27 -2.6 24 -4.5 87 87 W 6 9 30.06 1018 10 16.09344 0 0
5:55 am 05:55 Clear 26 -3.4 23 -5 89 89 WSW 6 9 30.09 1019 10 16.09344 0 0
6:15 am 06:15 Clear 27 -2.6 24 -4.3 88 88 W 6 9 30.06 1018 10 16.09344 0 0
6:35 am 06:35 Clear 27 -2.9 24 -4.7 88 88 W 6 9 30.09 1019 10 16.09344 0 0
6:55 am 06:55 Clear 25 -3.9 22 -5.6 88 88 WNW 7 11 30.12 1020 10 16.09344 0 0
7:15 am 07:15 Clear 26 -3.5 23 -5.1 89 89 W 5 7 30.12 1020 10 16.09344 0 0
7:35 am 07:35 Clear 26 -3.6 22 -5.5 87 87 W 6 9 30.12 1020 10 16.09344 0 0
7:55 am 07:55 Clear 26 -3.6 22 -5.4 88 88 W 8 13 30.12 1020 10 16.09344 0 0
8:15 am 08:15 Sunny 26 -3.2 23 -5 88 88 W 8 13 30.12 1020 10 16.09344 0 0
8:35 am 08:35 Sunny 27 -2.7 24 -4.6 87 87 W 6 9 30.12 1020 10 16.09344 0 0
8:55 am 08:55 Sunny 28 -2 25 -4 86 86 W 5 7 30.09 1019 10 16.09344 0 0
9:15 am 09:15 Sunny 30 -0.9 27 -3 86 86 W 5 7 30.09 1019 10 16.09344 0 0
9:35 am 09:35 Sunny 32 0 28 -2.4 84 84 W 6 9 30.09 1019 10 16.09344 0 0
9:55 am 09:55 Sunny 33 0.6 28 -2 83 83 NW 5 7 30.12 1020 10 16.09344 0 0
10:15 am 10:15 Sunny 34 1.3 29 -1.4 82 82 NW 6 9 30.09 1019 10 16.09344 0 0
10:35 am 10:35 Sunny 36 2.4 30 -1 79 79 WNW 8 13 30.09 1019 10 16.09344 0 0
10:55 am 10:55 Sunny 38 3.2 31 -0.6 76 76 NW 9 15 30.09 1019 10 16.09344 0 0
11:15 am 11:15 Sunny 38 3.5 31 -0.6 75 75 WNW 6 9 30.09 1019 10 16.09344 0 0
11:35 am 11:35 Sunny 39 4 31 -0.4 73 73 WNW 8 13 30.06 1018 10 16.09344 0 0
11:55 am 11:55 Sunny 40 4.3 32 -0.2 73 73 WNW 7 11 30.06 1018 10 16.09344 0 0
12:15 pm 12:15 Sunny 41 4.8 32 0 71 71 W 9 15 30.03 1017 10 16.09344 0 0
12:35 pm 12:35 Sunny 42 5.5 32 0.1 69 69 W 7 11 30.03 1017 10 16.09344 0 0
12:55 pm 12:55 Sunny 43 6.1 33 0.8 69 69 WNW 7 11 30.03 1017 10 16.09344 0 0
1:15 pm 13:15 Sunny 44 6.5 33 0.8 67 67 WNW 7 11 30 1016 10 16.09344 0 0
1:35 pm 13:35 Sunny 44 6.6 34 1.1 68 68 WNW 6 9 30 1016 10 16.09344 0 0
1:55 pm 13:55 Sunny 45 7 35 1.6 69 69 NW 3 6 30 1016 10 16.09344 0 0
2:15 pm 14:15 Sunny 46 7.9 35 1.5 64 64 Calm 30 1016 10 16.09344 0 0
2:35 pm 14:35 Sunny 46 7.8 36 2.1 68 68 Calm 30 1016 10 16.09344 0 0
2:55 pm 14:55 Sunny 46 7.8 37 2.6 70 70 WNW 3 6 30 1016 10 16.09344 0 0
3:15 pm 15:15 Sunny 46 7.8 37 2.7 70 70 WNW 5 7 30 1016 10 16.09344 0 0
3:35 pm 15:35 Sunny 46 7.8 37 3 72 72 NW 3 6 30 1016 10 16.09344 0 0
3:55 pm 15:55 Sunny 48 8.8 38 3.2 68 68 Calm 30 1016 10 16.09344 0 0
4:15 pm 16:15 Sunny 48 9.1 38 3.1 66 66 NNE 5 7 30 1016 10 16.09344 0 0
4:35 pm 16:35 Sunny 47 8.3 36 2.2 66 66 ENE 3 6 30 1016 10 16.09344 0 0
4:55 pm 16:55 Sunny 45 7.1 34 1.1 66 66 NE 5 7 30 1016 10 16.09344 0 0
5:15 pm 17:15 Sunny 43 6 33 0.6 69 69 ENE 5 7 30.03 1017 10 16.09344 0 0
5:35 pm 17:35 Clear 42 5.5 33 0.6 71 71 E 5 7 30.03 1017 10 16.09344 0 0
5:55 pm 17:55 Clear 41 4.8 33 0.3 73 73 ENE 5 7 30.06 1018 10 16.09344 0 0
6:15 pm 18:15 Clear 41 4.8 33 0.5 74 74 ENE 5 7 30.06 1018 10 16.09344 0 0
6:35 pm 18:35 Clear 39 4 32 0.2 77 77 ENE 5 7 30.06 1018 10 16.09344 0 0
6:55 pm 18:55 Clear 36 2.4 32 -0.2 83 83 NE 3 6 30.09 1019 10 16.09344 0 0
7:15 pm 19:15 Clear 37 2.6 32 0 83 83 Calm 30.09 1019 10 16.09344 0 0
7:35 pm 19:35 Clear 37 3 32 0 81 81 Calm 30.09 1019 10 16.09344 0 0
7:55 pm 19:55 Clear 37 3 32 0 81 81 Calm 30.09 1019 10 16.09344 0 0
8:15 pm 20:15 Clear 38 3.2 32 0.1 80 80 E 5 7 30.09 1019 10 16.09344 0 0
8:35 pm 20:35 Clear 37 2.6 32 0 83 83 Calm 30.09 1019 10 16.09344 0 0
8:55 pm 20:55 Clear 37 2.9 32 0.1 82 82 Calm 30.09 1019 10 16.09344 0 0
9:15 pm 21:15 Clear 37 2.7 32 0 83 83 ESE 3 6 30.09 1019 10 16.09344 0 0
9:35 pm 21:35 Clear 37 2.7 32 0 83 83 ESE 3 6 30.06 1018 10 16.09344 0 0
9:55 pm 21:55 Clear 37 2.8 32 0 82 82 Calm 30.09 1019 10 16.09344 0 0
10:15 pm 22:15 Clear 38 3.3 32 0.2 80 80 E 5 7 30.06 1018 10 16.09344 0 0
10:35 pm 22:35 Clear 37 3 32 0.2 82 82 E 3 6 30.06 1018 10 16.09344 0 0
10:55 pm 22:55 Clear 37 2.6 32 0.2 84 84 E 5 7 30.06 1018 10 16.09344 0 0
11:15 pm 23:15 Clear 37 3 33 0.7 85 85 E 6 9 30.03 1017 10 16.09344 0 0
11:35 pm 23:35 Clear 37 2.6 33 0.5 86 86 Calm 30.06 1018 10 16.09344 0 0
11:55 pm 23:55 Clear 37 2.6 33 0.6 87 87 Calm 30.06 1018 10 16.09344 0 0

Powered by AerisWeather